Weather Roundup
Issued by NWS Chicago, IL

Home | Current Version | Previous Version | Graphics & Text | Print | Product List | Glossary On
Versions: 1 2 3 4 5 6 7 8 9 10 11 12 13 14 15 16 17 18 19 20 21 22 23 24 25 26 27 28 29 30 31 32 33 34 35 36 37 38 39 40 41 42 43 44 45 46 47 48 49 50
000
NZUS59 KLOT 290558
HRRLOT

CHICAGO AREA WEATHER ROUNDUP
NATIONAL WEATHER SERVICE CHICAGO/ROMEOVILLE IL
1200 AM CST MON DEC 29 2014

NOTE: "FAIR" INDICATES FEW OR NO CLOUDS BELOW 12,000 FEET WITH NO
SIGNIFICANT WEATHER AND/OR OBSTRUCTIONS TO VISIBILITY.

* THESE STATIONS ARE NOT UNDER NWS QUALITY CONTROL. THEY ALSO MAY NOT
  REPORT WEATHER SUCH AS PRECIPITATION OR FOG.

ILZ005-006-012>014-019>023-290700-
NORTHEAST ILLINOIS

CITY           SKY/WX    TMP DP  RH WIND       PRES   REMARKS
OHARE          PTCLDY    25  19  78 NW5       30.24S WCI  19
6HR MIN TEMP:  23; 6HR MAX TEMP:  30;

MIDWAY         NOT AVBL
AURORA         PTCLDY    24  17  74 CALM      30.25S
6HR MIN TEMP:  21; 6HR MAX TEMP:  28;

WAUKEGAN       NOT AVBL
DUPAGE AIRPORT PTCLDY    23  17  78 CALM      30.24S
6HR MIN TEMP:  21; 6HR MAX TEMP:  27;

WHEELING       PTCLDY    24  18  77 NW3       30.26F
6HR MIN TEMP:  22; 6HR MAX TEMP:  31;

NORTHERLY IS     N/A     30  19  63 W5          N/A  WCI  25
$$

WIZ051-052-058>065-066-070>072-290700-
SOUTHEAST WISCONSIN

CITY           SKY/WX    TMP DP  RH WIND       PRES   REMARKS
MILWAUKEE      CLOUDY    27  19  72 NW6       30.25S WCI  20
6HR MIN TEMP:  24; 6HR MAX TEMP:  29;

$$

INZ001>003-010>013-019-020-290700-
NORTHWEST INDIANA

CITY           SKY/WX    TMP DP  RH WIND       PRES   REMARKS
GARY*          NOT AVBL
MICHIGAN CITY* NOT AVBL
RENSSELAER*    NOT AVBL
$$

LMZ740>746-290700-
SOUTHERN LAKE MICHIGAN

STATION/POSITION TIME  SKY/WX   TEMP WIND        PRES    VSBY
                                AIR  DIR/SP/G
                 (UTC)          (F)  (DEG/KT/KT) (MB)    (MI)
HARRISON CRIB    0500            31  300/  8/ 10   N/A
BURNHAM HARBOR   0500            30  270/  5/  7   N/A
CALUMET HARBOR   0500            27  280/  4/  6 1023.0R
BURNS HARBOR     NOT AVBL
MICHIGAN CITY    0500            33  260/ 15/ 18   N/A
$$

ABBREVIATIONS USED IN REMARKS
   TC - TEMPERATURE IN CELSIUS
  WCI - WIND CHILL INDEX
   HX - HEAT INDEX
  VSB - VISIBILITY
$$


USA.gov is the U.S. government's official web portal to all federal, state and local government web resources and services.